STARLINK-2503, 48151

Orbit data source: Space-Track

STARLINK-2503, 48151 is a payload satellite owned by SpaceX/Seattle (US) in LEO that was launched on Wed, 07 Apr 2021 UTC via an FALCON 9 launch vehicle from the Air Force Eastern Test Range (AFETR). Payload-class satellites include a variety of spacecraft equipped with specific instruments for various scientific and technological missions. These include communications satellites like Starlink; space stations such as the ISS; scientific satellites like the Hubble; Earth observation satellites from companies like Planet Labs, Umbra, and HawkEye 360; GPS; miniature CubeSats for education and research; and military/defense satellites.

Loading next visibility...
Identifier
48151, 2021-027BM
Orbit
LEO
Country
Flag of USUS
Related business
Manufacturer
SpaceX/Seattle
Mission
Operational Commercial Communications
Bus & Motor
STARLINK, Unknown motor
Mass
260 kg wet, ~248 kg dry
Launch date (UTC)
2021-04-07 (5 years ago)
Launch vehicle
FALCON 9
Launch site
Air Force Eastern Test Range (AFETR)
Object type
Payload
Rocket body
Debris
Shape & HBR
Box + 1 Pan, 10.1 m
Radar Cross Section
13.562 m², Large (>1 m²)

Expand to show TLE details & history
Last TLE update: 2 days ago

TLE from 2 days ago
0 STARLINK-2503
1 48151U 21027BM  26171.40743271  .00001704  00000-0  66633-4 0  9996
2 48151  53.1608  34.8048 0001153  88.3377 271.7757 15.31711311288421
Epoch: 2026-06-20T09:46Z
TLE epoch observation values (Epoch: 2026-06-20T09:46:42.186Z)
Latitude
0.00004°
Longitude
-20.49344°
Altitude
471.582 km
Speed
7.631 km/s
True Right ascension
02h 19m 13s
True Declination
0° 00' 00"
Sunlit
Object was in daylight at epoch
Visualization orbit readout
Latitude
Unknown
Longitude
Unknown
Altitude
Unknown
Speed
Unknown
Apparent Right ascension
Unknown
Apparent Declination
Unknown
Sunlit
N/A
Visualization observer readout
Local Sidereal Time
21:23:38
Azimuth
Unknown
Elevation
Unknown
Doppler factor
Unknown
Orbital elements
Apogee altitude
471.752 km
Perigee altitude
470.173 km
Semi-major axis
6,849.1 km
Eccentricity
0.00012
Inclination
53.1608°
RAAN
34.8048°
Arg. of periapsis
88.3377°
True anomaly
271.76249°
Mean anomaly
271.7757°
Eccentric anomaly
271.7691°
Mean motion
3.82907 °/min
Orbital period
94.02 mins
BSTAR
0.000066633
Loading maneuver chart data...
Computing Atmospheric mass density...

Documentation

Showing up to 5 results
|